Change the Weather History Date:

Wednesday, April 9, 2014

  Actual Average Record
Temperature  
Mean Temperature 25 °F -  
Max Temperature 32 °F 39 °F 50 °F (1997)
Min Temperature 18 °F 25 °F 15 °F (2013)
Degree Days  
Heating Degree Days 40    
Moisture  
Dew Point 2 °F    
Average Humidity 39    
Maximum Humidity 42    
Minimum Humidity 32    
Precipitation  
Precipitation 0.00 in - - ()
Sea Level Pressure  
Sea Level Pressure 29.78 in    
Wind  
Wind Speed 8 mph (North)    
Max Wind Speed 13 mph    
Max Gust Speed -    
Visibility 10 miles    
Events      
Averages and records for this station are not official NWS values.
T = Trace of Precipitation, MM = Missing Value Source: NWS Daily Summary

Daily Weather History Graph

Daily Weather History Graph

Search for Another Location

Airport or City:

Trip Planner

Search our weather history database for the weather conditions in past years. The results will help you decide how hot, cold, wet, or windy it might be!

Date:

Astronomy

Apr. 09, 2014 Rise Set
Actual Time 6:57 AM AKDT 9:07 PM AKDT
Civil Twilight 6:10 AM AKDT 9:53 PM AKDT
Nautical Twilight 5:10 AM AKDT 10:55 PM AKDT
Astronomical Twilight 3:49 AM AKDT 12:18 AM AKDT
Moon 2:45 PM AKDT (4/9) 5:15 AM AKDT (4/9)
Length of Visible Light 15h 43m
Length of Day
14h 09m
Waxing Gibbous, 73% of the Moon is Illuminated
Apr 9
Waxing Gibbous
Apr 14
Full
Apr 21
Last Quarter
Apr 28
New
May 6
First Quarter

Hourly Weather History & Observations

Time (AKDT) Temp. Windchill Dew Point Humidity Pressure Visibility Wind Dir Wind Speed Gust Speed Precip Events Conditions
12:53 AM 23.0 °F 12.4 °F -0.9 °F 35% 29.64 in 10.0 mi NNE 10.4 mph - N/A   Partly Cloudy
1:53 AM 21.9 °F 13.4 °F -0.9 °F 37% 29.66 in 10.0 mi NNE 6.9 mph - N/A   Clear
2:53 AM 21.0 °F 8.6 °F -2.0 °F 36% 29.68 in 10.0 mi North 12.7 mph - N/A   Clear
3:53 AM 19.9 °F 10.1 °F -2.0 °F 38% 29.69 in 10.0 mi NNE 8.1 mph - N/A   Mostly Cloudy
4:53 AM 19.0 °F 8.2 °F -0.9 °F 42% 29.70 in 10.0 mi NNE 9.2 mph - N/A   Clear
5:53 AM 19.0 °F 6.8 °F -2.0 °F 40% 29.72 in 10.0 mi North 11.5 mph - N/A   Clear
6:53 AM 18.0 °F 5.4 °F -2.0 °F 41% 29.73 in 10.0 mi NNE 11.5 mph - N/A   Clear
7:53 AM 18.0 °F 8.7 °F -2.0 °F 41% 29.75 in 10.0 mi NNE 6.9 mph - N/A   Clear
8:53 AM 19.0 °F 9.0 °F -2.0 °F 40% 29.76 in 10.0 mi North 8.1 mph - N/A   Clear
9:53 AM 19.9 °F 10.1 °F -2.0 °F 38% 29.78 in 10.0 mi North 8.1 mph - N/A   Clear
10:53 AM 21.0 °F - -0.0 °F 40% 29.79 in 10.0 mi Calm Calm - N/A   Clear
11:53 AM 24.1 °F 19.7 °F 1.0 °F 37% 29.81 in 10.0 mi NNE 3.5 mph - N/A   Clear
12:53 PM 25.0 °F 18.1 °F 3.9 °F 41% 29.82 in 10.0 mi North 5.8 mph - N/A   Clear
1:53 PM 28.0 °F 20.8 °F 7.0 °F 41% 29.82 in 10.0 mi NE 6.9 mph - N/A   Clear
2:53 PM 28.9 °F 21.9 °F 8.1 °F 41% 29.83 in 10.0 mi Variable 6.9 mph - N/A   Clear
3:53 PM 30.9 °F 24.3 °F 9.0 °F 40% 29.82 in 10.0 mi North 6.9 mph - N/A   Clear
4:53 PM 30.0 °F 22.4 °F 9.0 °F 41% 29.81 in 10.0 mi NNW 8.1 mph - N/A   Clear
5:53 PM 30.9 °F 22.8 °F 10.0 °F 42% 29.81 in 10.0 mi NW 9.2 mph - N/A   Clear
6:53 PM 32.0 °F 27.5 °F 5.0 °F 32% 29.81 in 10.0 mi NNW 4.6 mph - N/A   Clear
7:53 PM 30.9 °F 27.5 °F 3.9 °F 32% 29.81 in 10.0 mi North 3.5 mph - N/A   Clear
8:53 PM 30.0 °F 22.4 °F 6.1 °F 36% 29.83 in 10.0 mi North 8.1 mph - N/A   Clear
9:53 PM 28.0 °F 20.8 °F 5.0 °F 38% 29.85 in 10.0 mi North 6.9 mph - N/A   Clear
10:53 PM 26.1 °F 17.6 °F 3.0 °F 37% 29.86 in 10.0 mi North 8.1 mph - N/A   Clear
11:53 PM 24.1 °F 14.4 °F 3.0 °F 40% 29.88 in 10.0 mi North 9.2 mph - N/A   Clear